Regional Weather Roundup
Issued by NWS

Home | Current Version | Previous Version | Text Only | Print | Product List | Glossary On
Versions: 1 2 3 4 5 6 7 8 9 10 11 12 13 14 15 16 17 18 19 20 21 22 23 24 25 26 27 28 29 30 31 32 33 34 35 36 37 38 39 40 41 42 43 44 45 46 47 48 49 50
000
ASUS43 KTOP 050359
RWRKS

WEATHER ROUNDUP FOR KANSAS
NATIONAL WEATHER SERVICE GOODLAND KS
1000 PM CST WED MAR 04 2015

NOTE:  "FAIR" INDICATES FEW OR NO CLOUDS BELOW 12,000 FEET WITH NO
SIGNIFICANT WEATHER AND/OR OBSTRUCTIONS TO VISIBILITY.

KSZ001>006-013>018-027>032-041>047-050500-
NORTHWEST KANSAS

CITY           SKY/WX    TMP DP  RH WIND       PRES   REMARKS
GOODLAND       CLEAR     16   8  71 SW7       30.30R
HAYS           CLEAR     18   0  45 S5        30.37R
HILL CITY      CLEAR     14   3  61 SW3       30.37R
RUSSELL        CLEAR     16   5  62 S6        30.37R
$$

KSZ061>065-074>080-084>089-050500-
SOUTHWEST KANSAS

CITY           SKY/WX    TMP DP  RH WIND       PRES   REMARKS
DODGE CITY     MOCLDY    19   7  59 CALM      30.37R
ELKHART          N/A     23  10  57 NW3         N/A
GARDEN CITY    CLEAR     19  11  70 N3        30.36R
GREAT BEND     PTCLDY    16   3  57 CALM      30.39R
LIBERAL        MOCLDY    18  10  73 NW3       30.38R
$$

KSZ066>073-081>083-090>101-050500-
SOUTHEAST KANSAS

CITY           SKY/WX    TMP DP  RH WIND       PRES   REMARKS
CHANUTE        CLOUDY    25  10  53 CALM      30.41R
COFFEYVILLE    CLOUDY    25  12  58 N5        30.41R
HUTCHINSON     PTCLDY    18   7  62 CALM      30.41R
MEDICINE LODGE   N/A     22  13  68 N3        30.41R
NEWTON         PTCLDY    19   3  49 N3        30.41R
PARSONS        CLOUDY    26  12  55 N3        30.41R
WICHITA INTL   MOCLDY    25   9  50 N3        30.41R
WICHITA JABRA  CLOUDY    22   9  57 N6        30.40R
WICHITA MCCONL CLOUDY    22   9  58 N6        30.40R
WINFIELD       CLOUDY    26  12  55 N5        30.41R
$$

KSZ007>012-019>026-033>040-048>060-102>105-050500-
NORTHEAST KANSAS

CITY           SKY/WX    TMP DP  RH WIND       PRES   REMARKS
CONCORDIA      CLEAR     21   5  50 NE5       30.40R
EMPORIA        PTCLDY    21   9  59 NW5       30.40R
LAWRENCE       PTCLDY    23   7  50 N9        30.42R
MANHATTAN      CLEAR     21   8  57 CALM      30.42R
OLATHE IND     MOCLDY    23  11  60 W5        30.39S
OLATHE EXE     MOCLDY    25   9  50 NW5       30.38R
SALINA         CLEAR     21   6  52 CALM      30.42R
TOPEKA BILLARD PTCLDY    23   7  50 N7        30.42R
TOPEKA FORBES  PTCLDY    25   6  44 N7        30.40R
$$


USA.gov is the U.S. government's official web portal to all federal, state and local government web resources and services.